This demonstration page uses our WeatherBlox Daily Observations layout. Learn more.

Left ArrowRight Arrow

38.89511, -77.03637

Hourly Observations for November 13, 2015

Temp ( °F °C ) Dew Point ( °F °C ) Humidity (%) Winds ( mph kmh ) Pressure ( in mb ) Visibility ( mi km ) Precip ( " mm )
12:52 am 00:52 Clear 60 15.6 40 4.4 47 47 W 8 13 29.73 1007 10 16 N/A
1:52 am 01:52 Clear 60 15.6 38 3.3 44 44 W 8 13 29.74 1007 10 16 N/A
2:52 am 02:52 Clear 58 14.4 39 3.9 50 50 W 6 9 29.75 1007 10 16 N/A
3:52 am 03:52 Clear 57 13.9 38 3.3 49 49 W 7 11 29.75 1008 10 16 N/A
4:52 am 04:52 Clear 53 11.7 38 3.3 57 57 WSW 6 9 29.77 1008 10 16 N/A
5:52 am 05:52 Mostly Clear 51 10.6 39 3.9 64 64 SW 6 9 29.79 1009 10 16 N/A
6:52 am 06:52 Partly Cloudy 52 11.1 36 2.2 55 55 SSW 5 7 29.80 1009 10 16 N/A
7:52 am 07:52 Partly Cloudy 55 12.8 35 1.7 47 47 WSW 5 7 29.81 1010 10 16 N/A
8:52 am 08:52 Partly Cloudy 57 13.9 35 1.7 44 44 W 7 11 29.82 1010 10 16 N/A
9:52 am 09:52 Partly Cloudy 58 14.4 31 -0.6 36 36 WNW 21 33 29.83 1010 10 16 N/A
10:52 am 10:52 Partly Cloudy 60 15.6 31 -0.6 33 33 WNW 14 22 29.84 1010 10 16 N/A
11:52 am 11:52 Mostly Sunny 61 16.1 30 -1.1 31 31 W 17 28 29.83 1010 10 16 N/A
12:52 pm 12:52 Mostly Sunny 61 16.1 24 -4.4 24 24 W 22 35 29.81 1010 10 16 N/A
12:56 pm 12:56 Sunny 63 17 25 -4 24 24 WNW 22 35 29.80 1009 10 16 N/A
1:52 pm 13:52 Mostly Sunny 62 16.7 25 -3.9 24 24 WNW 21 33 29.80 1009 10 16 N/A
2:52 pm 14:52 Mostly Sunny 61 16.1 23 -5 23 23 WNW 21 33 29.81 1010 10 16 N/A
3:52 pm 15:52 Mostly Sunny 60 15.6 23 -5 24 24 W 10 17 29.83 1010 10 16 N/A
6:52 pm 18:52 Clear 55 12.8 20 -6.7 25 25 WNW 12 19 29.92 1013 10 16 N/A
7:52 pm 19:52 Mostly Clear 54 12.2 17 -8.3 23 23 WNW 12 19 29.96 1014 10 16 N/A
8:52 pm 20:52 Clear 53 11.7 13 -10.6 20 20 WNW 10 17 29.97 1015 10 16 N/A
9:52 pm 21:52 Clear 51 10.6 14 -10 23 23 WNW 16 26 30.00 1016 10 16 N/A
10:52 pm 22:52 Clear 51 10.6 14 -10 23 23 WNW 13 20 30.01 1016 10 16 N/A
11:52 pm 23:52 Mostly Clear 49 9.4 15 -9.4 26 26 WNW 6 9 30.03 1017 10 16 N/A

Powered by AerisWeather